Vertical_Velocity
1 -1 -0 -1 -1 -1 -0 -0 1 -1 -0 -1 -2 -0 1 1 -2 -1 1 2 -2 -2 2 -1 1 2 0 -2 1 0 -3 -7 -2 -1 0 -0 -0 -0 -1 1 -0 1 -2 -3 -2 -2 -5 9 -1 -18 3 8 6 7
1 2 1 -0 -1 -1 -1 1 1 1 0 -0 -0 -2 -1 1 1 0 0 -1 -3 -1 1 -2 2 1 -1 0 -1 3 -1 -1 3 -0 1 2 -1 -1 1 -3 -2 -2 6 -1 -3 -1 2 1 4 0 -1 -1 -7 -6
6 3 1 1 -1 -2 -1 -3 2 -3 -1 -2 -0 -2 -1 1 -1 -0 0 2 -1 -3 1 -0 2 -1 -1 2 4 -3 -3 -2 5 3 -1 2 -2 1 0 -2 2 -6 4 -0 2 2 4 -2 2 9 7 -0 -2 0
5 2 2 1 -4 -1 -4 1 -3 -1 -1 -2 -1 -1 -1 1 -1 -2 0 -0 1 -4 -3 -0 3 3 2 2 -3 -2 -0 2 -4 3 6 2 5 4 -1 1 2 -0 -5 3 4 1 14 7 6 -4 1 9 10 6
5 1 2 2 -3 -2 0 -2 -3 -0 -1 -1 -2 -1 0 -1 -3 -2 1 1 1 -1 -4 2 1 3 2 0 -3 4 0 -1 -1 1 3 7 3 7 0 4 2 -1 -3 -8 -5 5 2 2 8 8 12 10 6 6
5 2 3 -1 -2 3 -1 -2 0 -0 -0 -2 -3 -1 3 -2 -1 -1 -4 1 0 1 -3 -1 -0 1 -1 0 1 0 -1 0 -1 1 -1 -1 2 4 2 1 0 -0 1 -1 -5 -2 1 -4 -5 -3 -1 7 3 3
3 3 1 -2 2 0 0 -2 1 -1 -2 -1 -4 -2 1 -4 -3 -2 0 0 -0 -2 -2 -0 -2 1 1 0 -0 -4 2 2 -0 -0 -2 -3 1 4 1 1 1 -4 -3 1 -3 -3 4 1 -3 -3 -4 -6 -5 -6
4 2 2 -0 1 -0 -3 1 1 1 -0 -1 -1 4 2 -1 -0 -0 -0 1 1 -1 -0 -2 -2 -0 -1 -1 1 0 4 7 -1 -1 -3 -2 -0 0 1 -1 -4 -2 -3 -1 -2 -2 -2 -0 -2 -1 -1 -3 2 -0
2 4 -2 1 -1 -1 -1 0 -1 -0 -4 0 -2 3 -3 0 -1 -2 -2 -0 0 1 0 -2 -1 -1 -1 -0 0 -1 4 3 -0 -1 -1 -5 0 -2 -1 -1 -3 -4 -3 -2 -1 0 -1 1 -1 -0 -1 3 1 0
5 -3 1 -2 -0 -1 2 0 -1 -2 -3 -1 2 -3 -4 -1 -2 -5 -1 -2 -2 1 1 0 1 -1 -0 2 1 -0 0 2 0 -3 -0 -0 -0 -1 1 -1 -2 -2 -2 -0 1 -2 0 2 0 -1 4 2 2 2
-2 1 -3 1 -2 -1 0 -1 -0 -4 -2 -4 -0 -1 -1 2 -1 -3 -1 -2 -2 -1 -0 -1 -0 2 -3 1 1 0 1 0 -0 -0 0 2 1 1 1 -0 0 1 1 1 0 2 2 4 0 5 2 1 1 1
-3 1 1 -4 -3 2 -0 -0 -1 -2 -4 -3 1 0 -1 -3 -0 -0 0 -2 -0 -1 -1 1 -1 1 -2 2 -0 0 0 0 -1 1 1 2 -2 1 1 -0 2 1 2 1 1 5 2 1 5 2 0 1 2 -1
3 -0 -3 -0 2 3 -2 -1 -0 -2 -5 -1 -0 -1 -3 -3 -0 -1 -2 -5 1 -1 -2 -1 2 1 3 2 0 0 1 -0 0 -0 1 -1 -1 1 -1 -1 1 -1 0 1 1 2 1 3 4 2 -0 -0 -0 1
-4 -0 5 2 1 1 -0 1 1 -4 -0 1 -2 -4 -1 -2 1 -2 -1 0 1 -0 -2 -1 -1 1 4 -0 -1 1 2 -1 -1 -0 -2 -1 -2 1 -1 0 -1 -2 -0 1 2 0 2 7 4 3 4 1 -0 3
1 3 3 0 -0 1 3 -1 -5 -0 -3 -3 -5 -2 -0 -2 0 -1 -1 -1 2 -1 -1 -2 -0 2 3 -2 -0 -1 1 -1 -1 -0 -2 0 1 0 -1 -1 -3 -1 1 4 1 3 5 3 4 2 3 2 3 1
1 2 -2 -0 4 -0 -1 -5 -0 3 -5 -3 0 -1 -3 -4 -0 -3 -3 -1 -1 0 -1 -2 1 2 -0 -1 -0 -1 0 -1 -1 -0 -2 -2 3 2 -1 -2 -0 4 4 2 0 3 0 -3 -5 -1 -0 0 0 3
-2 1 3 6 -1 -2 -7 4 1 -2 -4 -1 -2 -1 -2 -0 -1 -1 -4 -1 -1 -1 -1 1 -0 1 -1 -0 -1 -1 -1 -1 -1 1 1 -1 -1 0 -2 -5 0 1 -5 -1 0 2 -2 -1 3 2 1 2 -1 -2
3 -2 7 -1 -5 -3 -1 -1 -2 -4 -2 2 -3 -0 -1 -2 0 -4 -0 -7 2 -2 -2 3 -1 -0 -1 -0 -1 -0 -1 0 -1 -1 2 1 0 1 -0 -3 1 1 2 1 1 -1 2 1 3 1 2 2 1 2
-0 3 1 -5 -1 -4 2 -1 -0 -2 3 -4 -1 -2 -3 -2 -3 -0 -4 1 -5 -2 1 1 -2 -2 -0 0 -1 -1 1 1 -0 0 2 3 3 2 2 -2 0 -2 -2 -1 -3 1 -0 0 0 2 2 2 0 1
5 2 -2 -4 -1 -2 -2 -0 2 -3 -3 -5 -1 -3 1 -4 -0 -1 1 -4 -4 0 4 -4 -4 -2 0 0 -0 -2 -0 1 -0 2 2 1 1 -0 -0 -1 -2 -2 -0 1 0 -0 0 0 -1 1 0 0 1 1
1 -4 -5 -3 0 -0 0 1 -1 -3 -3 -3 -4 3 -3 -0 -2 1 -2 -3 3 3 0 -2 -3 -2 -1 0 0 0 -1 -0 -1 -1 -1 4 3 1 -0 -1 -2 -1 0 0 1 0 0 1 1 1 0 1 1 1
-3 -1 -3 2 -1 0 -1 -2 -2 -1 -3 -2 1 0 -0 -0 0 -2 -3 3 3 0 -2 -2 -3 -2 -1 -1 1 0 -1 1 1 -1 -1 0 -2 -1 0 1 2 -0 0 -1 -1 1 1 2 1 0 1 1 1 1
-1 -0 0 -3 2 1 -3 -1 -2 -2 -2 -0 -1 -0 -0 -2 -4 -1 0 1 -2 -2 -1 -2 -1 -1 -1 -0 1 0 0 1 -1 -1 1 2 1 2 1 0 0 -0 -1 0 2 2 2 0 0 1 1 1 -0 1
1 0 1 1 -0 1 -0 -2 -1 0 0 -1 1 -0 -3 -5 -1 -0 -3 -4 -3 -2 -1 -1 -1 -0 0 -0 0 1 0 -2 -1 -1 2 2 1 2 1 0 1 1 0 0 1 0 -1 2 1 1 0 -0 0 1
-1 -0 1 1 -1 -2 -0 0 0 -0 0 0 -1 -3 -2 -1 -4 -6 -5 -3 -1 -1 -2 -2 -0 1 1 1 1 2 0 -3 -2 -2 -0 1 3 1 0 1 1 2 2 1 2 1 0 4 4 2 1 1 1 1
2 0 -3 -2 0 2 0 -0 0 0 -1 -2 -4 -1 -2 -5 -5 -3 -2 -2 -2 -1 -2 -1 0 2 1 -0 1 3 -1 -2 1 -0 0 0 0 3 4 4 3 2 1 1 1 -1 1 1 0 -0 0 -1 -1 1
-3 -2 -0 2 2 2 -0 -1 -1 -2 -1 -2 -2 -1 -3 -4 -2 -1 -0 -1 -1 -2 -1 -1 -1 -1 -1 0 1 3 2 0 1 2 2 1 -0 0 1 -0 0 1 1 0 1 -1 -1 1 -1 -1 -1 -1 -1 -0
0 1 2 -0 -1 -1 -1 -1 -0 -1 -1 -2 0 -3 -2 -1 -1 -0 -1 -1 -0 -1 -2 -0 1 -1 -1 -1 -1 0 0 1 2 2 -0 0 1 1 0 1 0 -0 -0 1 0 1 0 3 -1 -0 3 1 -2 -2
1 1 1 1 0 -0 -0 0 -0 -2 0 -0 -1 0 -3 1 1 -0 -0 0 -1 -1 -1 -1 -1 -0 0 1 0 -0 -0 1 1 0 -1 -1 1 -0 -0 -0 0 1 0 0 0 0 -0 0 -2 -3 -2 -3 -1 1
1 1 -0 1 0 -2 0 -1 -0 -1 -0 -0 -1 -1 -1 0 1 1 1 -0 -1 -1 -3 -2 -2 -1 -0 -1 -1 -1 0 1 1 2 1 -1 -0 -0 -1 -0 0 -0 -0 -0 -0 -1 -1 0 -0 0 1 1 1 1
2 1 -0 0 -1 -1 -1 -1 -1 -0 -0 1 0 -2 1 -2 4 -0 1 0 -0 -1 -1 0 1 1 1 2 2 0 2 2 1 1 1 0 0 -0 -1 -1 -1 -0 0 1 1 0 1 0 0 1 2 2 1 0
-0 -1 -2 -1 -0 -1 -2 -1 -0 -0 0 -0 -0 1 1 -0 -2 -1 2 -0 1 2 0 -2 0 2 1 -1 -1 0 1 0 1 1 1 0 -0 0 0 -0 -0 -1 -2 -1 -1 -1 -1 -1 -1 -0 -0 -0 -1 -2
-1 -1 -1 -1 -1 -1 -1 -2 -3 -3 -0 0 1 -0 -0 0 -0 -1 2 1 1 0 2 2 -2 -1 0 1 -0 -1 0 0 0 1 0 0 1 1 0 0 -0 -1 -1 -1 -1 -1 -1 -0 -0 -1 -1 -1 -2 -3
Height
3069 3070 3070 3069 3068 3068 3067 3066 3064 3062 3059 3055 3051 3047 3043 3038 3034 3031 3026 3020 3017 3013 3012 3009 3004 3002 3000 2997 2995 2993 2992 2989 2986 2983 2981 2979 2976 2975 2972 2969 2964 2961 2958 2957 2954 2953 2952 2945 2940 2935 2940 2931 2927 2924
3061 3063 3063 3063 3063 3063 3063 3061 3060 3058 3055 3051 3047 3043 3039 3035 3031 3026 3022 3017 3013 3011 3009 3005 3003 3000 2998 2995 2993 2992 2992 2989 2987 2984 2983 2979 2977 2975 2973 2970 2967 2965 2964 2964 2963 2960 2957 2951 2948 2946 2942 2936 2930 2927
3054 3056 3056 3057 3056 3058 3058 3058 3056 3053 3050 3047 3043 3039 3035 3031 3027 3023 3018 3013 3010 3008 3006 3002 2999 2997 2995 2993 2993 2992 2989 2987 2984 2982 2981 2979 2976 2973 2972 2970 2967 2965 2962 2960 2960 2958 2956 2952 2947 2944 2942 2938 2934 2930
3048 3049 3050 3050 3050 3052 3053 3052 3051 3049 3046 3042 3039 3035 3031 3027 3023 3019 3015 3010 3007 3004 3003 3001 2997 2993 2992 2991 2990 2989 2988 2985 2982 2978 2976 2975 2974 2972 2969 2969 2967 2966 2962 2959 2958 2954 2952 2952 2947 2941 2935 2930 2926 2924
3041 3043 3043 3044 3044 3046 3048 3047 3046 3044 3040 3037 3034 3030 3026 3022 3018 3014 3010 3006 3004 3004 3000 2997 2994 2992 2990 2989 2988 2987 2985 2983 2980 2976 2974 2973 2971 2970 2966 2966 2964 2963 2962 2959 2953 2950 2947 2943 2938 2936 2933 2928 2925 2920
3035 3037 3038 3038 3040 3042 3042 3041 3041 3038 3035 3032 3029 3025 3021 3018 3013 3010 3006 3004 3001 2998 2996 2993 2992 2990 2989 2987 2986 2985 2984 2982 2979 2974 2971 2969 2967 2967 2964 2963 2961 2961 2959 2956 2953 2951 2948 2943 2938 2933 2929 2927 2924 2921
3030 3031 3032 3033 3036 3037 3037 3037 3036 3033 3030 3027 3024 3020 3017 3013 3009 3007 3006 3002 2998 2995 2993 2991 2990 2989 2986 2985 2983 2983 2982 2980 2978 2973 2969 2966 2964 2964 2962 2960 2959 2959 2957 2955 2952 2948 2948 2944 2938 2936 2933 2931 2928 2925
3025 3025 3026 3030 3032 3032 3032 3032 3030 3028 3026 3023 3019 3015 3012 3008 3004 3002 2999 2997 2995 2993 2991 2990 2990 2987 2985 2984 2982 2981 2981 2979 2977 2974 2969 2965 2962 2960 2960 2958 2956 2956 2955 2953 2952 2949 2947 2944 2941 2939 2937 2934 2931 2929
3018 3020 3022 3026 3027 3028 3027 3027 3025 3023 3021 3018 3015 3012 3009 3004 3001 3000 2996 2994 2992 2994 2990 2988 2988 2986 2984 2982 2980 2980 2979 2978 2976 2974 2970 2968 2963 2961 2959 2956 2954 2953 2953 2952 2951 2950 2948 2945 2944 2942 2940 2938 2936 2934
3013 3015 3019 3021 3023 3023 3023 3022 3020 3018 3016 3014 3011 3008 3004 3002 2997 2997 2993 2993 2992 2992 2990 2988 2987 2985 2984 2980 2979 2979 2978 2977 2975 2974 2970 2968 2965 2962 2958 2955 2954 2953 2953 2952 2952 2951 2950 2949 2948 2947 2945 2943 2942 2940
3008 3012 3014 3017 3019 3019 3018 3016 3014 3013 3012 3010 3007 3003 3001 2998 2996 2993 2993 2993 2992 2991 2989 2987 2985 2983 2982 2981 2979 2979 2977 2976 2974 2974 2971 2968 2966 2963 2959 2957 2955 2954 2954 2954 2954 2954 2953 2953 2952 2950 2950 2948 2947 2946
3006 3009 3011 3013 3014 3015 3013 3011 3009 3008 3007 3007 3004 2999 2998 2997 2996 2995 2993 2992 2991 2988 2985 2983 2981 2979 2978 2977 2977 2978 2977 2976 2974 2973 2971 2969 2967 2964 2961 2960 2958 2957 2957 2957 2957 2957 2957 2956 2955 2955 2954 2953 2952 2950
3003 3006 3008 3010 3010 3010 3008 3007 3006 3004 3003 3001 3000 2997 2997 2997 2996 2993 2992 2990 2987 2983 2980 2977 2976 2976 2974 2975 2976 2976 2975 2975 2974 2972 2971 2970 2968 2966 2964 2963 2962 2962 2961 2961 2961 2961 2961 2960 2960 2960 2959 2957 2957 2956
3001 3004 3006 3006 3006 3005 3004 3003 3002 3001 3000 2998 2996 2996 2996 2995 2994 2991 2988 2985 2979 2974 2971 2970 2971 2973 2972 2974 2975 2975 2975 2974 2973 2972 2971 2970 2969 2968 2966 2966 2966 2966 2965 2965 2965 2965 2965 2964 2965 2964 2963 2962 2961 2961
2998 3001 3002 3002 3002 3002 3001 3000 2999 2997 2997 2996 2996 2996 2994 2993 2990 2987 2983 2978 2972 2968 2967 2967 2969 2972 2971 2973 2973 2974 2973 2972 2971 2971 2971 2971 2970 2969 2969 2970 2971 2970 2969 2969 2969 2969 2968 2968 2969 2968 2967 2967 2966 2965
2996 2998 2998 2999 2999 2998 2998 2997 2996 2994 2993 2995 2993 2993 2991 2990 2987 2982 2978 2973 2968 2965 2967 2968 2968 2969 2970 2971 2972 2971 2971 2970 2971 2971 2972 2971 2971 2971 2972 2973 2974 2973 2973 2973 2972 2971 2972 2971 2971 2971 2970 2970 2970 2969
2994 2995 2996 2996 2995 2995 2995 2995 2993 2991 2991 2992 2991 2989 2988 2986 2984 2979 2974 2969 2965 2965 2966 2967 2967 2968 2969 2969 2969 2969 2968 2969 2970 2971 2972 2973 2973 2974 2975 2975 2975 2976 2976 2976 2975 2976 2975 2975 2974 2975 2974 2974 2974 2973
2991 2993 2992 2992 2993 2993 2992 2991 2990 2989 2990 2989 2989 2987 2984 2983 2980 2976 2972 2967 2964 2964 2964 2966 2966 2966 2967 2966 2966 2967 2967 2968 2970 2972 2973 2974 2975 2976 2977 2978 2978 2979 2979 2979 2979 2978 2978 2978 2977 2977 2977 2977 2976 2977
2989 2990 2989 2990 2990 2990 2990 2989 2988 2987 2986 2986 2986 2984 2982 2980 2977 2974 2969 2965 2963 2963 2963 2963 2964 2964 2965 2965 2965 2965 2966 2969 2971 2973 2974 2975 2976 2978 2978 2980 2981 2980 2980 2981 2980 2979 2979 2979 2978 2979 2979 2979 2979 2980
2987 2987 2987 2988 2987 2987 2987 2987 2985 2984 2985 2985 2984 2981 2979 2976 2974 2971 2967 2964 2962 2961 2961 2961 2962 2963 2963 2963 2964 2965 2967 2970 2972 2974 2976 2977 2978 2979 2980 2981 2981 2981 2981 2981 2980 2980 2979 2980 2980 2980 2980 2981 2981 2982
2985 2986 2986 2986 2985 2984 2984 2983 2983 2983 2983 2982 2981 2978 2975 2973 2971 2968 2965 2962 2959 2958 2957 2958 2960 2961 2961 2962 2963 2965 2968 2970 2972 2974 2976 2977 2979 2981 2981 2981 2981 2982 2982 2981 2981 2981 2982 2982 2982 2982 2982 2983 2984 2985
2984 2984 2983 2983 2983 2982 2981 2981 2981 2981 2980 2980 2978 2975 2972 2970 2968 2966 2963 2959 2957 2954 2953 2955 2956 2958 2959 2960 2962 2965 2968 2971 2973 2975 2977 2978 2979 2980 2981 2981 2982 2983 2982 2982 2982 2982 2983 2983 2983 2984 2984 2985 2986 2987
2982 2982 2982 2982 2982 2979 2981 2979 2979 2978 2977 2975 2974 2972 2969 2967 2966 2964 2961 2958 2954 2951 2949 2951 2952 2954 2956 2958 2961 2964 2968 2971 2973 2975 2977 2978 2980 2981 2982 2982 2983 2984 2984 2983 2984 2984 2984 2985 2985 2986 2986 2987 2988 2989
2980 2980 2980 2979 2978 2978 2977 2976 2975 2974 2973 2972 2971 2969 2967 2966 2965 2963 2960 2957 2954 2949 2947 2947 2950 2952 2954 2958 2962 2965 2968 2971 2974 2976 2978 2979 2980 2981 2983 2983 2984 2984 2985 2985 2985 2986 2987 2986 2986 2987 2988 2989 2989 2990
2981 2980 2979 2977 2977 2975 2974 2972 2971 2970 2970 2969 2968 2967 2966 2965 2964 2962 2960 2957 2954 2951 2948 2948 2949 2952 2955 2959 2963 2966 2969 2971 2974 2976 2978 2980 2981 2982 2983 2984 2985 2986 2986 2987 2988 2989 2989 2989 2989 2990 2990 2990 2991 2991
2978 2977 2977 2975 2974 2972 2970 2969 2968 2967 2966 2966 2966 2965 2965 2964 2963 2961 2959 2957 2955 2954 2952 2953 2954 2955 2958 2960 2963 2966 2969 2971 2974 2976 2978 2980 2981 2983 2984 2985 2985 2986 2987 2988 2989 2989 2990 2990 2990 2991 2991 2992 2992 2993
2975 2975 2975 2973 2971 2969 2967 2966 2965 2965 2964 2964 2963 2963 2963 2962 2961 2960 2958 2957 2956 2956 2955 2955 2957 2958 2960 2962 2964 2967 2969 2971 2974 2976 2978 2980 2981 2982 2984 2985 2986 2987 2987 2988 2988 2990 2990 2990 2991 2992 2992 2992 2992 2992
2974 2972 2971 2970 2967 2966 2964 2962 2961 2961 2960 2961 2961 2961 2961 2960 2959 2958 2957 2956 2956 2956 2956 2956 2957 2959 2960 2962 2964 2966 2968 2970 2972 2974 2976 2978 2980 2982 2983 2984 2985 2986 2987 2987 2988 2989 2989 2989 2989 2990 2990 2990 2990 2990
2970 2969 2967 2965 2963 2962 2960 2959 2958 2958 2958 2958 2958 2958 2957 2957 2956 2956 2956 2955 2955 2955 2955 2956 2957 2958 2959 2961 2963 2965 2967 2969 2971 2972 2974 2976 2978 2980 2981 2982 2983 2984 2985 2986 2986 2987 2987 2988 2988 2988 2988 2988 2987 2987
2966 2964 2963 2961 2960 2958 2957 2956 2955 2954 2953 2954 2953 2953 2954 2953 2953 2952 2952 2952 2953 2953 2953 2954 2955 2956 2958 2959 2961 2962 2964 2966 2968 2970 2972 2973 2975 2977 2978 2979 2980 2981 2982 2983 2984 2984 2985 2985 2985 2986 2986 2986 2985 2985
2962 2960 2959 2957 2956 2954 2952 2951 2950 2949 2948 2948 2947 2947 2947 2947 2948 2947 2947 2948 2948 2949 2951 2952 2952 2954 2955 2957 2958 2960 2962 2964 2965 2967 2969 2971 2973 2974 2975 2976 2977 2978 2979 2980 2981 2981 2982 2982 2983 2983 2983 2983 2982 2982
2958 2956 2955 2953 2952 2950 2948 2947 2945 2944 2943 2941 2941 2940 2940 2940 2940 2941 2942 2943 2943 2944 2946 2947 2948 2950 2951 2953 2955 2957 2959 2960 2962 2964 2966 2967 2969 2970 2971 2973 2974 2974 2975 2976 2977 2977 2977 2978 2978 2978 2978 2978 2977 2977
2953 2952 2951 2949 2948 2946 2945 2943 2941 2939 2937 2936 2935 2934 2934 2934 2934 2935 2936 2937 2938 2939 2940 2941 2943 2945 2946 2949 2951 2953 2955 2956 2958 2960 2962 2963 2965 2966 2967 2968 2969 2970 2971 2971 2972 2972 2973 2973 2973 2973 2973 2973 2973 2972